COSMOS 249 DEB, 3583

Orbit data source: Space-Track

COSMOS 249 DEB, 3583 is space debris in LEO originally from a launch on Sun, 20 Oct 1968 UTC launched from the Tyuratam Missile And Space Complex (TTMTR). Debris objects in space refer to the collection of defunct objects orbiting the Earth. Examples of debris include non-operational satellites, rocket bodies, and fragments generated from explosions, collisions, or faulty payload assembly.

Loading next visibility...
Identifier
3583, 1968-091R
Orbit
LEO
Country
Flag of CISCIS
Related business
Manufacturer
Unknown
Mission
Spacecraft
Bus & Motor
Unknown
Mass
Unknown
Launch date (UTC)
1968-10-20 (57 years ago)
Launch vehicle
Unknown
Launch site
Tyuratam Missile And Space Complex (TTMTR)
Object type
Payload
Rocket body
Debris
Shape & HBR
Unknown shape, 0.1 m
Radar Cross Section
Small (<0.1 m²)

Expand to show TLE details & history
Last TLE update: 15 hours ago

TLE from 15 hours ago
0 COSMOS 249 DEB
1  3583U 68091R   25318.41107206  .00000864  00000-0  12823-2 0  9999
2  3583  62.0795 326.3412 0708463  92.5937 275.6283 12.85613201656609
Epoch: 2025-11-14T09:51Z
TLE epoch observation values (Epoch: 2025-11-14T09:51:56.625Z)
Latitude
-0.00002°
Longitude
124.60029°
Altitude
1,305.652 km
Speed
7.211 km/s
True Right ascension
21h 45m 21s
True Declination
0° 00' 00"
Sunlit
Object was in daylight at epoch
Visualization orbit readout
Latitude
Unknown
Longitude
Unknown
Altitude
Unknown
Speed
Unknown
Apparent Right ascension
Unknown
Apparent Declination
Unknown
Sunlit
N/A
Visualization observer readout
Local Sidereal Time
21:07:37
Azimuth
Unknown
Elevation
Unknown
Doppler factor
Unknown
Orbital elements
Apogee altitude
1,863.245 km
Perigee altitude
772.759 km
Semi-major axis
7,696.139 km
Eccentricity
0.07085
Inclination
62.0795°
RAAN
326.3412°
Arg. of periapsis
92.5937°
True anomaly
267.50561°
Mean anomaly
275.6283°
Eccentric anomaly
271.57063°
Mean motion
3.21465 °/min
Orbital period
111.99 mins
BSTAR
0.0012823
Loading maneuver chart data...
Computing Atmospheric mass density...

Documentation

Showing up to 5 results
|